Find Starlink 11507

NORAD ID: 62519 Int'l Des: 2025-004 Owner: SPXS Country: US Constellation: starlink operational
別名: STARLINK-11507 [DTC] celestrak
LEOCIRCULAR

現在のビュー

3D地球を読み込み中...

About Starlink 11507

Starlink 11507 (NORAD 62519) is a starlink constellation satellite (v2 mini d2c) launched Jan 8, 2025 by SPXS of US. It operates in LEO, CIRCULAR orbit with a mass of 960.00 kg.

次回通過

Passes for default location (London). Set your location on the main map for personalized predictions.

高度履歴

Loading altitude history...

軌道要素

1 62519U 25004J 26263.48615179 .00199756 00000-0 15217-2 0 9999
2 62519 42.9997 336.6760 0001015 153.0742 207.0178 15.70862936 97845
Epoch: Sep 20, 2026 • Age: 15 hours

現在のステータス

高度 358.5 km
遠地点 / 近地点 N/A
速度 7.70 km/s
衛星直下点 -15.96°S, 136.85°E
打ち上げ日 Jan 8, 2025
運用期間 1.6 years
タイプ internet

技術仕様

分類 Payload
質量 960.00 kg
乾燥質量 910.00 kg
長さ 0.30 m
スパン 29.00 m
形状 ? Box + pan
製造者 SPXS
バスタイプ Starlink V2MD
フェーズステータス In Orbit
所有者/国 SPXS/US

Most Searched